Weather History for KAPC - November, 2011

Change the Weather History Date:

Sunday, November 20, 2011

  Actual Average Record
Temperature  
Mean Temperature 51 °F 50 °F  
Max Temperature 57 °F 62 °F 74 °F (2005)
Min Temperature 44 °F 38 °F 29 °F (2007)
Degree Days  
Heating Degree Days 14    
Month to date heating degree days 289  
Since 1 July heating degree days 507  
Cooling Degree Days 0    
Month to date cooling degree days 0  
Year to date cooling degree days 175  
Moisture  
Dew Point 44 °F    
Average Humidity 78    
Maximum Humidity 89    
Minimum Humidity 66    
Precipitation  
Precipitation 0.13 in - 1.68 in (1966)
Month to date precipitation 1.94  
Year to date precipitation 18.98  
Since 1 July precipitation 3.13  
Sea Level Pressure  
Sea Level Pressure 29.85 in    
Wind  
Wind Speed 10 mph (ENE)    
Max Wind Speed 20 mph    
Max Gust Speed 26 mph    
Visibility 10 miles    
Events Rain    
T = Trace of Precipitation, MM = Missing Value Source: NWS Daily Summary

Daily Weather History Graph

Daily Weather History Graph

Search for Another Location

Airport or City:

Trip Planner

Search our weather history database for the weather conditions in past years. The results will help you decide how hot, cold, wet, or windy it might be!

Date:

Astronomy

Nov. 20, 2011 Rise Set
Actual Time 6:55 AM PST 4:53 PM PST
Civil Twilight 6:26 AM PST 5:22 PM PST
Nautical Twilight 5:54 AM PST 5:54 PM PST
Astronomical Twilight 5:23 AM PST 6:25 PM PST
Moon 1:34 AM PST (11/20) 1:42 PM PST (11/20)
Length of Visible Light 10h 55m
Length of Day
9h 58m
Waning Crescent, 26% of the Moon is Illuminated
Nov 20
Waning Crescent
Nov 24
New
Dec 2
First Quarter
Dec 10
Full
Dec 17
Last Quarter

Hourly Weather History & Observations

Time (PST) Temp. Windchill Dew Point Humidity Pressure Visibility Wind Dir Wind Speed Gust Speed Precip Events Conditions
12:54 AM 50.0 °F - 44.1 °F 80% 29.66 in 7.0 mi ESE 18.4 mph - 0.02 in Rain Light Rain
1:54 AM 50.0 °F - 44.1 °F 80% 29.66 in 10.0 mi ESE 15.0 mph - 0.02 in Rain Light Rain
2:54 AM 48.9 °F - 44.1 °F 83% 29.66 in 8.0 mi SE 13.8 mph - 0.05 in Rain Light Rain
4:54 AM 48.9 °F - 45.0 °F 86% 29.68 in 10.0 mi ESE 8.1 mph - 0.01 in   Overcast
5:54 AM 48.0 °F - 45.0 °F 89% 29.70 in 10.0 mi East 12.7 mph - N/A   Mostly Cloudy
6:54 AM 48.0 °F - 44.1 °F 86% 29.71 in 10.0 mi East 15.0 mph 21.9 mph 0.00 in   Mostly Cloudy
7:54 AM 48.0 °F - 44.1 °F 86% 29.75 in 10.0 mi East 15.0 mph - N/A   Mostly Cloudy
7:57 AM 48.2 °F - 44.6 °F 87% 29.77 in 10.0 mi East 16.1 mph 21.9 mph N/A   Mostly Cloudy
8:54 AM 48.9 °F - 44.1 °F 83% 29.78 in 10.0 mi East 10.4 mph 19.6 mph N/A   Mostly Cloudy
10:54 AM 52.0 °F - 46.0 °F 80% 29.81 in 10.0 mi ENE 15.0 mph 21.9 mph N/A   Mostly Cloudy
11:54 AM 53.1 °F - 46.9 °F 80% 29.82 in 10.0 mi ENE 10.4 mph - N/A   Mostly Cloudy
12:54 PM 54.0 °F - 46.0 °F 75% 29.84 in 10.0 mi ENE 11.5 mph - N/A   Overcast
1:54 PM 55.0 °F - 45.0 °F 69% 29.83 in 10.0 mi ENE 13.8 mph - N/A   Overcast
2:54 PM 55.0 °F - 45.0 °F 69% 29.83 in 10.0 mi ENE 6.9 mph - N/A   Mostly Cloudy
3:54 PM 55.0 °F - 45.0 °F 69% 29.86 in 10.0 mi NE 5.8 mph - N/A   Overcast
4:54 PM 53.1 °F - 45.0 °F 74% 29.88 in 10.0 mi NNE 10.4 mph - N/A   Mostly Cloudy
4:56 PM 53.6 °F - 44.6 °F 72% 29.90 in 10.0 mi NNE 9.2 mph - N/A   Mostly Cloudy
5:31 PM 50.0 °F - 42.8 °F 76% 29.91 in 10.0 mi NNE 8.1 mph - N/A   Scattered Clouds
5:54 PM 50.0 °F - 43.0 °F 77% 29.89 in 10.0 mi NNE 6.9 mph - N/A   Scattered Clouds
6:54 PM 48.9 °F - 43.0 °F 80% 29.92 in 10.0 mi North 4.6 mph - N/A   Overcast
7:54 PM 48.9 °F - 44.1 °F 83% 29.96 in 10.0 mi North 3.5 mph - N/A   Overcast
8:19 PM 50.0 °F - 42.8 °F 76% 29.99 in 10.0 mi North 6.9 mph - N/A   Overcast
8:54 PM 50.0 °F - 43.0 °F 77% 29.96 in 10.0 mi NNE 8.1 mph - N/A   Overcast
9:15 PM 46.4 °F 43.5 °F 42.8 °F 87% 29.99 in 10.0 mi North 5.8 mph - N/A   Mostly Cloudy
9:22 PM 44.6 °F 41.4 °F 41.0 °F 87% 30.00 in 10.0 mi North 5.8 mph - N/A   Partly Cloudy
9:54 PM 48.0 °F - 43.0 °F 83% 29.99 in 10.0 mi NE 6.9 mph - N/A   Mostly Cloudy
10:52 PM 44.6 °F - 41.0 °F 87% 30.02 in 10.0 mi Calm Calm - N/A   Scattered Clouds
10:54 PM 44.1 °F - 41.0 °F 89% 30.00 in 10.0 mi Calm Calm - N/A   Scattered Clouds
11:54 PM 46.9 °F - 42.1 °F 83% 30.00 in 10.0 mi East 4.6 mph - N/A   Clear